• In Österreich
  • Länderverzeichnis
  • Für 7 Tage
  • Wassertemperatur
  • Satellitenkarten
  • Wetterkarte
  • News
  • Widgets
  • user-avatar
    Anmelden

    Stündliche Wetter Julara

    Heute, 13 Dezember, Mittwoch

    Zeit Temperatur Niederschläge Wind Luftdruck Luftfeuchtigkeit
    00:00 +35°C° 0 mm 3 m/S 715 mmHg 21%
    01:00 +34°C° 0 mm 3 m/S 714 mmHg 23%
    02:00 +32°C° 0 mm 2 m/S 714 mmHg 24%
    03:00 +31°C° 0 mm 2 m/S 714 mmHg 27%
    04:00 +31°C° 0 mm 2 m/S 714 mmHg 28%
    05:00 +31°C° 0 mm 2 m/S 714 mmHg 29%
    06:00 +31°C° 0 mm 1 m/S 714 mmHg 30%
    07:00 +33°C° 0 mm 1 m/S 714 mmHg 27%
    08:00 +36°C° 0 mm 2 m/S 715 mmHg 23%
    09:00 +38°C° 0 mm 2 m/S 715 mmHg 20%
    10:00 +39°C° 0 mm 3 m/S 715 mmHg 19%
    11:00 +41°C° 0 mm 4 m/S 715 mmHg 17%
    12:00 +43°C° 0 mm 5 m/S 714 mmHg 15%
    13:00 +42°C° 0 mm 5 m/S 714 mmHg 16%
    14:00 +42°C° 0 mm 6 m/S 713 mmHg 17%
    15:00 +41°C° 0 mm 7 m/S 713 mmHg 18%
    16:00 +41°C° 0 mm 6 m/S 713 mmHg 18%
    17:00 +40°C° 0 mm 4 m/S 713 mmHg 18%
    18:00 +39°C° 0 mm 3 m/S 713 mmHg 18%
    19:00 +37°C° 0,1 mm 5 m/S 713 mmHg 21%
    20:00 +36°C° 0,1 mm 7 m/S 713 mmHg 24%
    21:00 +35°C° 0,1 mm 9 m/S 714 mmHg 27%
    22:00 +34°C° 0 mm 7 m/S 714 mmHg 27%
    23:00 +34°C° 0 mm 6 m/S 714 mmHg 28%

    Morgen, 14 Dezember, Donnerstag

    Zeit Temperatur Niederschläge Wind Luftdruck Luftfeuchtigkeit
    00:00 +34°C° 0 mm 4 m/S 714 mmHg 29%
    01:00 +33°C° 0 mm 5 m/S 714 mmHg 33%
    02:00 +32°C° 0 mm 5 m/S 713 mmHg 36%
    03:00 +30°C° 0 mm 6 m/S 713 mmHg 39%
    04:00 +30°C° 0 mm 5 m/S 714 mmHg 41%
    05:00 +29°C° 0 mm 5 m/S 714 mmHg 43%
    06:00 +29°C° 0 mm 5 m/S 714 mmHg 44%
    07:00 +32°C° 0 mm 5 m/S 715 mmHg 41%
    08:00 +33°C° 0 mm 5 m/S 715 mmHg 38%
    09:00 +35°C° 0 mm 6 m/S 715 mmHg 35%
    10:00 +36°C° 0 mm 5 m/S 715 mmHg 32%
    11:00 +37°C° 0 mm 4 m/S 715 mmHg 28%
    12:00 +40°C° 0 mm 4 m/S 715 mmHg 25%
    13:00 +40°C° 0 mm 4 m/S 714 mmHg 24%
    14:00 +40°C° 0 mm 4 m/S 714 mmHg 23%
    15:00 +40°C° 0 mm 4 m/S 713 mmHg 22%
    16:00 +38°C° 0 mm 4 m/S 713 mmHg 22%
    17:00 +39°C° 0 mm 5 m/S 713 mmHg 23%
    18:00 +39°C° 0 mm 5 m/S 713 mmHg 23%
    19:00 +38°C° 0 mm 6 m/S 713 mmHg 25%
    20:00 +36°C° 0 mm 6 m/S 714 mmHg 27%
    21:00 +35°C° 0 mm 6 m/S 714 mmHg 28%
    22:00 +34°C° 0 mm 6 m/S 715 mmHg 29%
    23:00 +33°C° 0 mm 6 m/S 715 mmHg 30%

    übermorgen, 15 Dezember, Freitag

    Zeit Temperatur Niederschläge Wind Luftdruck Luftfeuchtigkeit
    00:00 +33°C° 0 mm 6 m/S 715 mmHg 31%
    01:00 +32°C° 0 mm 6 m/S 715 mmHg 32%
    02:00 +30°C° 0 mm 6 m/S 714 mmHg 33%
    03:00 +29°C° 0 mm 5 m/S 714 mmHg 34%
    04:00 +29°C° 0 mm 6 m/S 715 mmHg 35%
    05:00 +28°C° 0 mm 6 m/S 715 mmHg 35%
    06:00 +28°C° 0 mm 7 m/S 715 mmHg 36%
    07:00 +29°C° 0 mm 6 m/S 716 mmHg 34%
    08:00 +30°C° 0 mm 6 m/S 716 mmHg 32%
    09:00 +32°C° 0 mm 6 m/S 716 mmHg 30%
    10:00 +34°C° 0 mm 6 m/S 716 mmHg 28%
    11:00 +35°C° 0 mm 6 m/S 716 mmHg 27%
    12:00 +36°C° 0 mm 5 m/S 715 mmHg 25%
    13:00 +36°C° 0 mm 5 m/S 715 mmHg 25%
    14:00 +37°C° 0 mm 5 m/S 714 mmHg 24%
    15:00 +37°C° 0 mm 4 m/S 714 mmHg 23%
    16:00 +37°C° 0 mm 4 m/S 713 mmHg 24%
    17:00 +37°C° 0 mm 4 m/S 713 mmHg 24%
    18:00 +37°C° 0 mm 4 m/S 713 mmHg 24%
    19:00 +35°C° 0,2 mm 4 m/S 714 mmHg 28%
    20:00 +34°C° 0,2 mm 3 m/S 714 mmHg 31%
    21:00 +31°C° 0,2 mm 3 m/S 714 mmHg 34%
    22:00 +31°C° 0,4 mm 3 m/S 715 mmHg 36%
    23:00 +30°C° 0,4 mm 2 m/S 715 mmHg 38%

    16 Dezember, Samstag

    Zeit Temperatur Niederschläge Wind Luftdruck Luftfeuchtigkeit
    00:00 +30°C° 0,4 mm 2 m/S 715 mmHg 40%
    01:00 +30°C° 0,2 mm 2 m/S 715 mmHg 40%
    02:00 +30°C° 0,2 mm 2 m/S 715 mmHg 40%
    03:00 +30°C° 0,2 mm 2 m/S 715 mmHg 40%
    04:00 +30°C° 0 mm 3 m/S 715 mmHg 39%
    05:00 +29°C° 0 mm 3 m/S 715 mmHg 39%
    06:00 +29°C° 0 mm 4 m/S 716 mmHg 39%
    07:00 +32°C° 0 mm 5 m/S 716 mmHg 35%
    08:00 +34°C° 0 mm 6 m/S 717 mmHg 30%
    09:00 +36°C° 0 mm 7 m/S 717 mmHg 25%
    10:00 +39°C° 0 mm 7 m/S 717 mmHg 24%
    11:00 +40°C° 0 mm 7 m/S 716 mmHg 22%
    12:00 +41°C° 0 mm 7 m/S 716 mmHg 21%
    13:00 +42°C° 0 mm 6 m/S 715 mmHg 19%
    14:00 +44°C° 0 mm 6 m/S 714 mmHg 18%
    15:00 +43°C° 0 mm 5 m/S 713 mmHg 17%
    16:00 +43°C° 0 mm 5 m/S 713 mmHg 18%
    17:00 +42°C° 0 mm 4 m/S 713 mmHg 19%
    18:00 +42°C° 0 mm 4 m/S 714 mmHg 19%
    19:00 +40°C° 0,1 mm 6 m/S 714 mmHg 24%
    20:00 +38°C° 0,1 mm 7 m/S 714 mmHg 30%
    21:00 +35°C° 0,1 mm 9 m/S 714 mmHg 35%
    22:00 +34°C° 1,5 mm 9 m/S 714 mmHg 39%
    23:00 +33°C° 1,5 mm 9 m/S 714 mmHg 44%

    17 Dezember, Sonntag

    Zeit Temperatur Niederschläge Wind Luftdruck Luftfeuchtigkeit
    00:00 +31°C° 1,5 mm 10 m/S 714 mmHg 48%
    01:00 +32°C° 0,5 mm 8 m/S 714 mmHg 46%
    02:00 +32°C° 0,5 mm 5 m/S 714 mmHg 45%
    03:00 +33°C° 0,5 mm 3 m/S 713 mmHg 43%
    04:00 +31°C° 0,1 mm 3 m/S 714 mmHg 43%
    05:00 +32°C° 0,1 mm 4 m/S 714 mmHg 44%
    06:00 +32°C° 0,1 mm 4 m/S 714 mmHg 45%
    07:00 +34°C° 0 mm 5 m/S 714 mmHg 40%
    08:00 +36°C° 0 mm 6 m/S 715 mmHg 34%
    09:00 +39°C° 0 mm 7 m/S 715 mmHg 29%
    10:00 +40°C° 0 mm 7 m/S 715 mmHg 26%
    11:00 +41°C° 0 mm 7 m/S 714 mmHg 23%
    12:00 +43°C° 0 mm 7 m/S 714 mmHg 20%
    13:00 +44°C° 0 mm 7 m/S 713 mmHg 19%
    14:00 +44°C° 0 mm 7 m/S 713 mmHg 18%
    15:00 +45°C° 0 mm 7 m/S 712 mmHg 17%
    16:00 +44°C° 0 mm 7 m/S 712 mmHg 18%
    17:00 +42°C° 0 mm 6 m/S 712 mmHg 19%
    18:00 +42°C° 0 mm 6 m/S 712 mmHg 21%
    19:00 +41°C° 0 mm 5 m/S 712 mmHg 22%
    20:00 +40°C° 0 mm 5 m/S 713 mmHg 24%
    21:00 +38°C° 0 mm 4 m/S 713 mmHg 25%
    22:00 +38°C° 0 mm 4 m/S 712 mmHg 26%
    23:00 +37°C° 0 mm 4 m/S 712 mmHg 28%

    18 Dezember, Montag

    Zeit Temperatur Niederschläge Wind Luftdruck Luftfeuchtigkeit
    00:00 +36°C° 0 mm 4 m/S 712 mmHg 29%
    01:00 +36°C° 0 mm 4 m/S 711 mmHg 30%
    02:00 +35°C° 0 mm 4 m/S 711 mmHg 31%
    03:00 +35°C° 0 mm 5 m/S 711 mmHg 32%
    04:00 +34°C° 0 mm 4 m/S 711 mmHg 34%
    05:00 +34°C° 0 mm 4 m/S 711 mmHg 35%
    06:00 +34°C° 0 mm 4 m/S 711 mmHg 36%
    07:00 +36°C° 0 mm 6 m/S 712 mmHg 33%
    08:00 +39°C° 0 mm 8 m/S 712 mmHg 30%
    09:00 +42°C° 0 mm 10 m/S 712 mmHg 26%
    10:00 +43°C° 0 mm 10 m/S 712 mmHg 24%
    11:00 +43°C° 0 mm 10 m/S 712 mmHg 22%
    12:00 +44°C° 0 mm 11 m/S 711 mmHg 20%
    13:00 +44°C° 0 mm 10 m/S 711 mmHg 21%
    14:00 +44°C° 0 mm 10 m/S 710 mmHg 22%
    15:00 +43°C° 0 mm 10 m/S 710 mmHg 22%
    16:00 +43°C° 0 mm 9 m/S 710 mmHg 22%
    17:00 +43°C° 0 mm 9 m/S 710 mmHg 22%
    18:00 +43°C° 0 mm 9 m/S 710 mmHg 21%
    19:00 +41°C° 0 mm 8 m/S 710 mmHg 23%
    20:00 +40°C° 0 mm 7 m/S 711 mmHg 24%
    21:00 +39°C° 0 mm 6 m/S 711 mmHg 26%
    22:00 +38°C° 0 mm 6 m/S 711 mmHg 28%
    23:00 +36°C° 0 mm 6 m/S 711 mmHg 30%
    Mehr zeigen